Pratt, KS

7:20 AM CDT on October 21, 2017 (GMT -0500)
Pratt Industrial

Weather History for KPTT - March, 2013

Change the Weather History Date:

Wednesday, March 27, 2013

  Actual Average (KP28) Record (KP28)
Temperature  
Mean Temperature 48 °F -  
Max Temperature 60 °F 61 °F 89 °F (1905)
Min Temperature 35 °F 38 °F 7 °F (1899)
Degree Days  
Heating Degree Days 18    
Moisture  
Dew Point 27 °F    
Average Humidity 48    
Maximum Humidity 70    
Minimum Humidity 27    
Precipitation  
Precipitation 0.00 in - - ()
Sea Level Pressure  
Sea Level Pressure 30.07 in    
Wind  
Wind Speed 11 mph (SE)    
Max Wind Speed 21 mph    
Max Gust Speed 30 mph    
Visibility 10 miles    
Events      
Averages and records for this station are not official NWS values.
T = Trace of Precipitation, MM = Missing Value Source: NWS Daily Summary

Daily Weather History Graph

Daily Weather History Graph

Search for Another Location

Airport or City:

Trip Planner

Search our weather history database for the weather conditions in past years. The results will help you decide how hot, cold, wet, or windy it might be!

Date:

Astronomy

Mar. 27, 2013 Rise Set
Actual Time 7:27 AM CDT 7:53 PM CDT
Civil Twilight 7:01 AM CDT 8:19 PM CDT
Nautical Twilight 6:30 AM CDT 8:50 PM CDT
Astronomical Twilight 5:58 AM CDT 9:22 PM CDT
Moon 8:37 PM CDT (3/27) 7:20 AM CDT (3/27)
Length of Visible Light 13h 18m
Length of Day
12h 26m
Full, 100% of the Moon is Illuminated
Mar 27
Full
Apr 2
Last Quarter
Apr 10
New
Apr 18
First Quarter
Apr 25
Full

Hourly Weather History & Observations

Time (CDT) Temp. Windchill Dew Point Humidity Pressure Visibility Wind Dir Wind Speed Gust Speed Precip Events Conditions
12:15 AM 37.4 °F 29.3 °F 24.8 °F 60% 30.13 in 10.0 mi SSE 12.7 mph - N/A   Clear
12:35 AM 39.2 °F 31.6 °F 24.8 °F 56% 30.13 in 10.0 mi SSE 12.7 mph - N/A   Clear
12:55 AM 37.4 °F 29.3 °F 26.6 °F 65% 30.12 in 10.0 mi SSE 12.7 mph - N/A   Clear
1:15 AM 37.4 °F 29.8 °F 24.8 °F 60% 30.12 in 10.0 mi SSE 11.5 mph 21.9 mph N/A   Clear
1:35 AM 37.4 °F 28.5 °F 24.8 °F 60% 30.11 in 10.0 mi SSE 15.0 mph - N/A   Clear
1:55 AM 37.4 °F 28.2 °F 23.0 °F 56% 30.10 in 10.0 mi SSE 16.1 mph - N/A   Clear
2:15 AM 39.2 °F 30.2 °F 23.0 °F 52% 30.09 in 10.0 mi SSE 17.3 mph 24.2 mph N/A   Scattered Clouds
2:55 AM 39.2 °F 29.8 °F 23.0 °F 52% 30.07 in 10.0 mi SSE 18.4 mph 25.3 mph N/A   Clear
3:15 AM 39.2 °F 30.5 °F 21.2 °F 49% 30.07 in 10.0 mi SSE 16.1 mph 23.0 mph N/A   Clear
3:35 AM 39.2 °F 29.6 °F 21.2 °F 49% 30.06 in 10.0 mi SSE 19.6 mph 26.5 mph N/A   Clear
3:55 AM 37.4 °F 27.8 °F 23.0 °F 56% 30.05 in 10.0 mi SSE 17.3 mph 29.9 mph N/A   Scattered Clouds
4:15 AM 37.4 °F 26.9 °F 23.0 °F 56% 30.04 in 10.0 mi SSE 20.7 mph 25.3 mph N/A   Scattered Clouds
4:35 AM 37.4 °F 28.2 °F 23.0 °F 56% 30.04 in 10.0 mi SSE 16.1 mph 23.0 mph N/A   Mostly Cloudy
4:55 AM 37.4 °F 28.5 °F 23.0 °F 56% 30.04 in 10.0 mi SSE 15.0 mph 20.7 mph N/A   Scattered Clouds
5:15 AM 37.4 °F 28.5 °F 23.0 °F 56% 30.04 in 10.0 mi SSE 15.0 mph 20.7 mph N/A   Scattered Clouds
5:35 AM 35.6 °F 26.6 °F 23.0 °F 60% 30.03 in 10.0 mi SSE 13.8 mph - N/A   Clear
5:55 AM 35.6 °F 25.9 °F 23.0 °F 60% 30.02 in 10.0 mi SSE 16.1 mph - N/A   Clear
6:15 AM 35.6 °F 25.9 °F 24.8 °F 65% 30.02 in 10.0 mi SSE 16.1 mph 20.7 mph N/A   Clear
6:35 AM 35.6 °F 25.9 °F 24.8 °F 65% 30.02 in 10.0 mi SSE 16.1 mph 19.6 mph N/A   Clear
6:55 AM 35.6 °F 26.2 °F 24.8 °F 65% 30.03 in 10.0 mi SSE 15.0 mph - N/A   Clear
7:15 AM 35.6 °F 26.6 °F 24.8 °F 65% 30.03 in 10.0 mi SSE 13.8 mph - N/A   Clear
7:35 AM 35.6 °F 26.2 °F 26.6 °F 70% 30.03 in 10.0 mi SSE 15.0 mph 19.6 mph N/A   Clear
7:55 AM 35.6 °F 26.2 °F 26.6 °F 70% 30.04 in 10.0 mi SSE 15.0 mph 19.6 mph N/A   Clear
8:15 AM 35.6 °F 27.5 °F 26.6 °F 70% 30.05 in 10.0 mi SSE 11.5 mph - N/A   Clear
8:55 AM 37.4 °F 30.8 °F 26.6 °F 65% 30.05 in 10.0 mi SSE 9.2 mph - N/A   Clear
9:15 AM 39.2 °F 32.5 °F 26.6 °F 61% 30.06 in 10.0 mi SSE 10.4 mph - N/A   Clear
9:35 AM 41.0 °F 33.5 °F 26.6 °F 57% 30.06 in 10.0 mi SSE 13.8 mph - N/A   Clear
9:55 AM 42.8 °F 35.8 °F 26.6 °F 53% 30.05 in 10.0 mi SSE 13.8 mph 18.4 mph N/A   Clear
10:15 AM 42.8 °F 36.2 °F 26.6 °F 53% 30.05 in 10.0 mi South 12.7 mph - N/A   Clear
10:35 AM 44.6 °F 37.8 °F 24.8 °F 46% 30.06 in 10.0 mi South 15.0 mph 20.7 mph N/A   Clear
10:55 AM 46.4 °F 39.8 °F 26.6 °F 46% 30.06 in 10.0 mi South 16.1 mph 20.7 mph N/A   Clear
11:15 AM 48.2 °F - 24.8 °F 40% 30.06 in 10.0 mi South 15.0 mph - N/A   Clear
11:35 AM 50.0 °F - 26.6 °F 40% 30.07 in 10.0 mi South 12.7 mph - N/A   Clear
11:55 AM 51.8 °F - 26.6 °F 38% 30.06 in 10.0 mi South 11.5 mph - N/A   Clear
12:15 PM 51.8 °F - 26.6 °F 38% 30.07 in 10.0 mi SW 9.2 mph - N/A   Clear
12:35 PM 51.8 °F - 26.6 °F 38% 30.07 in 10.0 mi South 5.8 mph - N/A   Clear
12:55 PM 51.8 °F - 26.6 °F 38% 30.07 in 10.0 mi South 9.2 mph - N/A   Clear
1:15 PM 53.6 °F - 26.6 °F 35% 30.07 in 10.0 mi South 5.8 mph - N/A   Clear
1:35 PM 53.6 °F - 24.8 °F 33% 30.07 in 10.0 mi East 3.5 mph - N/A   Clear
1:55 PM 55.4 °F - 26.6 °F 33% 30.07 in 10.0 mi Calm Calm - N/A   Clear
2:15 PM 55.4 °F - 26.6 °F 33% 30.07 in 10.0 mi SW 3.5 mph - N/A   Clear
2:35 PM 55.4 °F - 26.6 °F 33% 30.07 in 10.0 mi Calm Calm - N/A   Clear
2:55 PM 55.4 °F - 24.8 °F 31% 30.07 in 10.0 mi Calm Calm - N/A   Clear
3:15 PM 55.4 °F - 26.6 °F 33% 30.06 in 10.0 mi SE 5.8 mph - N/A   Clear
3:35 PM 59.0 °F - 26.6 °F 29% 30.05 in 10.0 mi Calm Calm - N/A   Clear
3:55 PM 59.0 °F - 26.6 °F 29% 30.05 in 10.0 mi SE 4.6 mph - N/A   Clear
4:15 PM 59.0 °F - 26.6 °F 29% 30.05 in 10.0 mi Calm Calm - N/A   Clear
4:35 PM 59.0 °F - 26.6 °F 29% 30.05 in 10.0 mi ENE 3.5 mph - N/A   Clear
4:55 PM 59.0 °F - 26.6 °F 29% 30.05 in 10.0 mi Calm Calm - N/A   Clear
5:15 PM 60.8 °F - 26.6 °F 27% 30.06 in 10.0 mi Calm Calm - N/A   Clear
5:35 PM 59.0 °F - 26.6 °F 29% 30.07 in 10.0 mi ESE 5.8 mph - N/A   Clear
5:55 PM 59.0 °F - 26.6 °F 29% 30.07 in 10.0 mi Calm Calm - N/A   Clear
6:15 PM 59.0 °F - 26.6 °F 29% 30.07 in 10.0 mi ESE 3.5 mph - N/A   Clear
6:35 PM 59.0 °F - 26.6 °F 29% 30.08 in 10.0 mi NE 3.5 mph - N/A   Clear
6:55 PM 59.0 °F - 26.6 °F 29% 30.08 in 10.0 mi Calm Calm - N/A   Clear
7:15 PM 59.0 °F - 26.6 °F 29% 30.08 in 10.0 mi Calm Calm - N/A   Clear
7:35 PM 57.2 °F - 28.4 °F 33% 30.09 in 10.0 mi NE 3.5 mph - N/A   Clear
7:55 PM 53.6 °F - 32.0 °F 44% 30.09 in 10.0 mi NE 5.8 mph - N/A   Clear
8:15 PM 53.6 °F - 30.2 °F 41% 30.09 in 10.0 mi ENE 5.8 mph - N/A   Clear
8:35 PM 50.0 °F - 32.0 °F 50% 30.10 in 10.0 mi NE 6.9 mph - N/A   Clear
8:55 PM 48.2 °F - 32.0 °F 54% 30.11 in 10.0 mi NE 4.6 mph - N/A   Clear
9:15 PM 50.0 °F - 30.2 °F 47% 30.12 in 10.0 mi NE 5.8 mph - N/A   Clear
9:35 PM 48.2 °F - 30.2 °F 50% 30.12 in 10.0 mi NNE 9.2 mph - N/A   Clear
9:55 PM 46.4 °F 42.9 °F 32.0 °F 57% 30.13 in 10.0 mi ENE 6.9 mph - N/A   Clear
10:15 PM 46.4 °F 42.9 °F 32.0 °F 57% 30.13 in 10.0 mi NE 6.9 mph - N/A   Clear
10:35 PM 44.6 °F 40.7 °F 32.0 °F 61% 30.14 in 10.0 mi NE 6.9 mph - N/A   Clear
10:55 PM 44.6 °F 41.4 °F 32.0 °F 61% 30.14 in 10.0 mi NNE 5.8 mph - N/A   Clear
11:15 PM 42.8 °F 40.1 °F 32.0 °F 66% 30.14 in 10.0 mi ENE 4.6 mph - N/A   Clear
11:35 PM 41.0 °F 36.4 °F 32.0 °F 70% 30.14 in 10.0 mi NNE 6.9 mph - N/A   Clear
11:55 PM 42.8 °F 37.5 °F 32.0 °F 66% 30.14 in 10.0 mi NE 9.2 mph - N/A   Clear